This is the latest recevied weather packets stored in our database for station/object dl1wer-13. If no packets are shown the sender has not sent any weather packets the latest 10 day(s).
| Time | Temp. | Humidity | Pressure | Rain* | Wind** | Luminosity | Snow |
|---|---|---|---|---|---|---|---|
| 1777842620 | 16.11° C | 60% | 1040.8 hPa | 0 mm | - | - | - |
| 1777842020 | 16.11° C | 60% | 1041 hPa | 0 mm | - | - | - |
| 1777841420 | 16.11° C | 60% | 1040.7 hPa | 0 mm | - | - | - |
| 1777840820 | 16.11° C | 59% | 1040.9 hPa | 0 mm | - | - | - |
| 1777840220 | 15.56° C | 59% | 1040.7 hPa | 0 mm | - | - | - |
| 1777839620 | 15.56° C | 55% | 1040.4 hPa | 0 mm | - | - | - |
| 1777839020 | 16.11° C | 53% | 1040.3 hPa | 0 mm | - | - | - |
| 1777838420 | 16.67° C | 52% | 1040.3 hPa | 0 mm | - | - | - |
| 1777837820 | 16.67° C | 51% | 1040 hPa | 0 mm | - | - | - |
| 1777837220 | 17.22° C | 49% | 1039.9 hPa | 0 mm | - | - | - |
| 1777836620 | 17.22° C | 49% | 1039.8 hPa | 0 mm | - | - | - |
| 1777836020 | 17.22° C | 50% | 1039.8 hPa | 0 mm | - | - | - |
| 1777835421 | 17.78° C | 44% | 1039.6 hPa | 0 mm | - | - | - |
| 1777834820 | 18.33° C | 44% | 1039.2 hPa | 0 mm | - | - | - |
| 1777834220 | 18.33° C | 43% | 1039.2 hPa | 0 mm | - | - | - |
| 1777833619 | 19.44° C | 41% | 1038.8 hPa | 0 mm | - | - | - |
| 1777833020 | 20° C | 39% | 1038.8 hPa | 0 mm | - | - | - |
| 1777832419 | 20.56° C | 35% | 1038.6 hPa | 0 mm | - | - | - |
| 1777831820 | 21.11° C | 33% | 1038.8 hPa | 0 mm | - | - | - |
| 1777831221 | 21.67° C | 33% | 1038.7 hPa | 0 mm | - | - | - |
| 1777830619 | 21.67° C | 32% | 1038.6 hPa | 0 mm | - | - | - |
| 1777830020 | 22.22° C | 32% | 1038.6 hPa | 0 mm | - | - | - |
| 1777829421 | 22.78° C | 28% | 1038.6 hPa | 0 mm | - | - | - |
| 1777828821 | 22.78° C | 26% | 1038.6 hPa | 0 mm | - | - | - |
| 1777828220 | 23.33° C | 25% | 1038.5 hPa | 0 mm | - | - | - |
* Rain latest hour (hover to see other rain measurements)
** Current wind speed in m/s (hover to see current wind gust speed)